User: anonymous   Login
Location: Unspecified
(0.0000°N, 0.0000°E)
Time: 11:06:46
(UTC+00:00)
Language:

STARLINK-4791 - Orbit

View from above orbital plane
View from above orbital plane
View from above satellite
View from above satellite

Ground track
Ground track

The orbit is defined by the following mean orbital elements,

1 53936U          26145.55865889 +.00000000 +00000-0 +22033-4 0 00005
2 53936  53.2124 313.7755 0001198  96.6240 263.4889 15.08835447    07
Epoch (UTC): 25 May 2026 13:24:28
Eccentricity: 0.0001198
inclination: 53.2124°
perigee height: 539 km
apogee height: 541 km
right ascension of ascending node: 313.7755°
argument of perigee: 96.6240°
revolutions per day: 15.08835447
mean anomaly at epoch: 263.4889°

The dashed part of the orbit path shows where the satellite is in the earth's shadow,  

DLR